Погода в Ногинске

Россия / Московская область     55°51′16″N   38°26′30″E
темп.,
°C
ветер,
м/с
пор.,
м/с
влажн.,
%
обл.,
%
осадки,
мм/ч
давл.,
гПа
погр.,
м
16 мая, вс
вс1600:00+13ю412925 0.0 1010363
03:00+12ююз4109816 0.0 1011331
06:00+13ююз39945 0.0 1012318
09:00+18ююз47700 0.0 1013817
12:00+20ююз58585 0.1 10131594
15:00+21ююз6105141 0.7 10132249
18:00+19ююз48705 0.3 1013898
21:00+14ююз24910 0.3 101456
17 мая, пн
пн1700:00+13юз119291 0.0 101510
03:00+12ююв1192100 0.0 101610
06:00+14в238750 0.0 101676
09:00+20вюв3464100 0.0 1016550
12:00+23вюв455060 0.0 10151207
15:00+26вюв46468 0.0 10131532
18:00+25вюв38610 0.0 1012644
21:00+18вюв310845 0.0 1012205
18 мая, вт
вт1800:00+16юв313878 0.0 1011313
03:00+15вюв313905 0.0 1011295
06:00+16вюв4147555 0.0 1010385
09:00+22юв5115147 0.0 1009570
12:00+26юв6123732 0.0 10091148
15:00+27юв5123682 0.0 10082271
18:00+25юв5124637 0.0 10071350
21:00+21юв6156198 0.1 1006895
19 мая, ср
ср1900:00+19юв4127610 0.0 1006567
03:00+16юв3109446 0.0 1006307
06:00+16ююв4118694 0.0 1006584
09:00+20ююв6136693 0.0 10071392
12:00+18ю5984100 2.3 1006993
15:00+16ю4987100 5.4 1007842
18:00+16ю48810 1.5 1007998
21:00+12ююв310930 1.7 1008244
20 мая, чт
чт2000:00+12ю413896 0.0 1008509
03:00+11ююв4109099 0.0 1009772
06:00+10ю498594 0.1 1009598
09:00+11ююз5881100 0.1 1009777
12:00+11юз51086100 0.3 1010919
15:00+15зюз6106199 0.5 10111576
18:00+15зюз486633 0.1 10131320
21:00+10юз259015 0.1 101696